owner,sensor,date,latitude,longitude,vertical_datum,wind_speed,wind_to_direction,wind_speed_of_gust,qcFlag 
TABS,ioos:station:wmo:42043:1,2014-02-01T00:00:00Z,28.9818,-94.9186,4.0,5.525260175,144.3541242,6.53,'11111222,11111222,11111222' 
TABS,ioos:station:wmo:42043:1,2014-02-01T00:30:00Z,28.9818,-94.9186,4.0,4.587134182,144.4045361,5.51,'11111222,11111222,11111222' 
TABS,ioos:station:wmo:42043:1,2014-02-01T01:00:00Z,28.9818,-94.9186,4.0,5.280804863,146.0393935,6.59,'11111222,11111222,11111222' 
TABS,ioos:station:wmo:42043:1,2014-02-01T01:30:00Z,28.9818,-94.9186,4.0,5.65946994,149.1754246,7.05,'11111222,11111222,11111222' 
TABS,ioos:station:wmo:42043:1,2014-02-01T02:00:00Z,28.9818,-94.9186,4.0,5.796136644,152.9047213,7.07,'11111222,11111222,11111222' 
TABS,ioos:station:wmo:42043:1,2014-02-01T02:30:00Z,28.9818,-94.9186,4.0,6.301245909,153.5165494,7.56,'11111222,11111222,11111222' 
TABS,ioos:station:wmo:42043:1,2014-02-01T03:00:00Z,28.9818,-94.9186,4.0,6.330908308,150.681965,8.04,'11111222,11111222,11111222' 
TABS,ioos:station:wmo:42043:1,2014-02-01T03:30:00Z,28.9818,-94.9186,4.0,6.072758846,150.3958289,7.42,'11111222,11111222,11111222' 
TABS,ioos:station:wmo:42043:1,2014-02-01T04:00:00Z,28.9818,-94.9186,4.0,5.621743502,144.5573976,6.87,'11111222,11111222,11111222' 
TABS,ioos:station:wmo:42043:1,2014-02-01T04:30:00Z,28.9818,-94.9186,4.0,5.28076699,142.1538633,6.31,'11111222,11111222,11111222' 
TABS,ioos:station:wmo:42043:1,2014-02-01T05:00:00Z,28.9818,-94.9186,4.0,5.079261757,145.183855,6.2,'11111222,11111222,11111222' 
TABS,ioos:station:wmo:42043:1,2014-02-01T05:30:00Z,28.9818,-94.9186,4.0,5.346045267,143.3661822,6.46,'11111222,11111222,11111222' 
TABS,ioos:station:wmo:42043:1,2014-02-01T06:00:00Z,28.9818,-94.9186,4.0,6.249327964,145.4964901,7.46,'11111222,11111222,11111222' 
TABS,ioos:station:wmo:42043:1,2014-02-01T06:30:00Z,28.9818,-94.9186,4.0,7.13726138,145.3305238,8.27,'11111222,11111222,11111222' 
TABS,ioos:station:wmo:42043:1,2014-02-01T07:00:00Z,28.9818,-94.9186,4.0,5.646609602,148.0271692,7.1,'11111222,11111222,11111222' 
TABS,ioos:station:wmo:42043:1,2014-02-01T07:30:00Z,28.9818,-94.9186,4.0,5.07126217,149.2884163,6.0,'11111222,11111222,11111222' 
TABS,ioos:station:wmo:42043:1,2014-02-01T08:00:00Z,28.9818,-94.9186,4.0,4.892811053,154.0636676,6.03,'11111222,11111222,11111222' 
TABS,ioos:station:wmo:42043:1,2014-02-01T08:30:00Z,28.9818,-94.9186,4.0,5.551621385,160.0965075,6.8,'11111222,11111222,11111222' 
TABS,ioos:station:wmo:42043:1,2014-02-01T09:00:00Z,28.9818,-94.9186,4.0,4.338893868,152.2540353,5.32,'11111222,11111222,11111222' 
TABS,ioos:station:wmo:42043:1,2014-02-01T09:30:00Z,28.9818,-94.9186,4.0,4.089853298,160.280467,4.73,'11111222,11111222,11111222' 
TABS,ioos:station:wmo:42043:1,2014-02-01T10:00:00Z,28.9818,-94.9186,4.0,3.84629692,154.1014198,4.6,'11111222,11111222,11111222' 
TABS,ioos:station:wmo:42043:1,2014-02-01T10:30:00Z,28.9818,-94.9186,4.0,4.890695247,151.5487641,5.98,'11111222,11111222,11111222' 
TABS,ioos:station:wmo:42043:1,2014-02-01T11:00:00Z,28.9818,-94.9186,4.0,4.38731125,153.9024538,5.57,'11111222,11111222,11111222' 
TABS,ioos:station:wmo:42043:1,2014-02-01T11:30:00Z,28.9818,-94.9186,4.0,3.687221176,148.9832281,4.39,'11111222,11111222,11111222' 
TABS,ioos:station:wmo:42043:1,2014-02-01T12:00:00Z,28.9818,-94.9186,4.0,3.789511842,156.6825566,4.69,'11111222,11111222,11111222' 
TABS,ioos:station:wmo:42043:1,2014-02-01T12:30:00Z,28.9818,-94.9186,4.0,4.396146039,153.6683662,5.3,'11111222,11111222,11111222' 
TABS,ioos:station:wmo:42043:1,2014-02-01T13:00:00Z,28.9818,-94.9186,4.0,4.031339728,155.2152013,5.23,'11111222,11111222,11111222' 
TABS,ioos:station:wmo:42043:1,2014-02-01T13:30:00Z,28.9818,-94.9186,4.0,3.228451641,146.7532205,4.01,'11111222,11111222,11111222' 
TABS,ioos:station:wmo:42043:1,2014-02-01T14:00:00Z,28.9818,-94.9186,4.0,3.236680398,146.2120288,4.11,'11111222,11111222,11111222' 
TABS,ioos:station:wmo:42043:1,2014-02-01T14:30:00Z,28.9818,-94.9186,4.0,3.317167466,141.6102441,4.02,'11111222,11111222,11111222' 
TABS,ioos:station:wmo:42043:1,2014-02-01T15:00:00Z,28.9818,-94.9186,4.0,5.324002254,141.5589848,6.4,'11111222,11111222,11111222' 
TABS,ioos:station:wmo:42043:1,2014-02-01T15:30:00Z,28.9818,-94.9186,4.0,6.852919086,147.8176539,8.49,'11111222,11111222,11111222' 
TABS,ioos:station:wmo:42043:1,2014-02-01T16:00:00Z,28.9818,-94.9186,4.0,4.417420062,144.583238,5.31,'11111222,11111222,11111222' 
TABS,ioos:station:wmo:42043:1,2014-02-01T16:30:00Z,28.9818,-94.9186,4.0,4.540242284,146.1352203,5.74,'11111222,11111222,11111222' 
TABS,ioos:station:wmo:42043:1,2014-02-01T17:00:00Z,28.9818,-94.9186,4.0,2.955029611,144.6429319,4.16,'11111222,11111222,11111222' 
TABS,ioos:station:wmo:42043:1,2014-02-01T17:30:00Z,28.9818,-94.9186,4.0,4.035554485,148.4764932,4.89,'11111222,11111222,11111222' 
TABS,ioos:station:wmo:42043:1,2014-02-01T18:00:00Z,28.9818,-94.9186,4.0,5.007833863,148.7225807,5.94,'11111222,11111222,11111222' 
TABS,ioos:station:wmo:42043:1,2014-02-01T18:30:00Z,28.9818,-94.9186,4.0,3.288114961,135.3699599,4.04,'11111222,11111222,11111222' 
TABS,ioos:station:wmo:42043:1,2014-02-01T19:00:00Z,28.9818,-94.9186,4.0,2.889498226,117.629603,3.58,'11111222,11111222,11111222' 
TABS,ioos:station:wmo:42043:1,2014-02-01T19:30:00Z,28.9818,-94.9186,4.0,3.317167466,128.3903873,4.03,'11111222,11111222,11111222' 
TABS,ioos:station:wmo:42043:1,2014-02-01T20:00:00Z,28.9818,-94.9186,4.0,3.763787986,118.7444547,4.94,'11111222,11111222,11111222' 
TABS,ioos:station:wmo:42043:1,2014-02-01T20:30:00Z,28.9818,-94.9186,4.0,4.225221888,122.3363327,5.05,'11111222,11111222,11111222' 
TABS,ioos:station:wmo:42043:1,2014-02-01T21:00:00Z,28.9818,-94.9186,4.0,4.17080328,118.654668,4.85,'11111222,11111222,11111222' 
TABS,ioos:station:wmo:42043:1,2014-02-01T21:30:00Z,28.9818,-94.9186,4.0,3.738462251,112.6556006,4.76,'11111222,11111222,11111222' 
TABS,ioos:station:wmo:42043:1,2014-02-01T22:00:00Z,28.9818,-94.9186,4.0,3.860634663,111.5813066,4.67,'11111222,11111222,11111222' 
TABS,ioos:station:wmo:42043:1,2014-02-01T22:30:00Z,28.9818,-94.9186,4.0,3.887377008,109.6938568,4.56,'11111222,11111222,11111222' 
TABS,ioos:station:wmo:42043:1,2014-02-01T23:00:00Z,28.9818,-94.9186,4.0,3.739545427,110.1798324,4.45,'11111222,11111222,11111222' 
TABS,ioos:station:wmo:42043:1,2014-02-01T23:30:00Z,28.9818,-94.9186,4.0,4.159326869,115.9493515,5.0,'11111222,11111222,11111222' 
TABS,ioos:station:wmo:42043:1,2014-02-02T00:00:00Z,28.9818,-94.9186,4.0,4.409852605,117.2626856,5.17,'11111222,11111222,11111222' 
TABS,ioos:station:wmo:42043:1,2014-02-02T00:30:00Z,28.9818,-94.9186,4.0,5.231787457,119.7995671,6.18,'11111222,11111222,11111222' 
TABS,ioos:station:wmo:42043:1,2014-02-02T01:00:00Z,28.9818,-94.9186,4.0,5.099460756,117.8216921,6.02,'11111222,11111222,11111222' 
TABS,ioos:station:wmo:42043:1,2014-02-02T01:30:00Z,28.9818,-94.9186,4.0,4.826282213,121.6156266,5.78,'11111222,11111222,11111222' 
TABS,ioos:station:wmo:42043:1,2014-02-02T02:00:00Z,28.9818,-94.9186,4.0,3.878002063,115.5081709,4.94,'11111222,11111222,11111222' 
TABS,ioos:station:wmo:42043:1,2014-02-02T02:30:00Z,28.9818,-94.9186,4.0,4.315842907,115.971694,5.31,'11111222,11111222,11111222' 
TABS,ioos:station:wmo:42043:1,2014-02-02T03:00:00Z,28.9818,-94.9186,4.0,4.772965535,119.3581058,5.69,'11111222,11111222,11111222' 
TABS,ioos:station:wmo:42043:1,2014-02-02T03:30:00Z,28.9818,-94.9186,4.0,4.973228328,123.0193815,5.84,'11111222,11111222,11111222' 
TABS,ioos:station:wmo:42043:1,2014-02-02T04:00:00Z,28.9818,-94.9186,4.0,4.415993659,129.8557357,5.71,'11111222,11111222,11111222' 
TABS,ioos:station:wmo:42043:1,2014-02-02T04:30:00Z,28.9818,-94.9186,4.0,4.448145681,126.4065187,5.43,'11111222,11111222,11111222' 
TABS,ioos:station:wmo:42043:1,2014-02-02T05:00:00Z,28.9818,-94.9186,4.0,4.582488407,120.706791,5.48,'11111222,11111222,11111222' 
TABS,ioos:station:wmo:42043:1,2014-02-02T05:30:00Z,28.9818,-94.9186,4.0,4.676804465,133.0074739,5.83,'11111222,11111222,11111222' 
TABS,ioos:station:wmo:42043:1,2014-02-02T06:00:00Z,28.9818,-94.9186,4.0,4.638933067,131.7672038,5.53,'11111222,11111222,11111222' 
TABS,ioos:station:wmo:42043:1,2014-02-02T06:30:00Z,28.9818,-94.9186,4.0,3.594885255,132.745746,4.39,'11111222,11111222,11111222' 
TABS,ioos:station:wmo:42043:1,2014-02-02T07:00:00Z,28.9818,-94.9186,4.0,5.317518218,134.6955545,6.85,'11111222,11111222,11111222' 
TABS,ioos:station:wmo:42043:1,2014-02-02T07:30:00Z,28.9818,-94.9186,4.0,5.170038685,133.8247834,6.42,'11111222,11111222,11111222' 
TABS,ioos:station:wmo:42043:1,2014-02-02T08:00:00Z,28.9818,-94.9186,4.0,4.201071292,136.157646,5.11,'11111222,11111222,11111222' 
TABS,ioos:station:wmo:42043:1,2014-02-02T08:30:00Z,28.9818,-94.9186,4.0,3.712586699,142.1117799,4.46,'11111222,11111222,11111222' 
TABS,ioos:station:wmo:42043:1,2014-02-02T09:00:00Z,28.9818,-94.9186,4.0,3.490515721,137.9032878,4.32,'11111222,11111222,11111222' 
TABS,ioos:station:wmo:42043:1,2014-02-02T09:30:00Z,28.9818,-94.9186,4.0,4.323563345,131.0615858,5.41,'11111222,11111222,11111222' 
TABS,ioos:station:wmo:42043:1,2014-02-02T10:00:00Z,28.9818,-94.9186,4.0,5.57108607,128.0015971,6.47,'11111222,11111222,11111222' 
TABS,ioos:station:wmo:42043:1,2014-02-02T10:30:00Z,28.9818,-94.9186,4.0,4.365191863,115.8022959,5.15,'11111222,11111222,11111222' 
TABS,ioos:station:wmo:42043:1,2014-02-02T11:00:00Z,28.9818,-94.9186,4.0,5.320084586,118.3959345,6.14,'11111222,11111222,11111222' 
TABS,ioos:station:wmo:42043:1,2014-02-02T11:30:00Z,28.9818,-94.9186,4.0,5.365258614,113.5074476,6.32,'11111222,11111222,11111222' 
TABS,ioos:station:wmo:42043:1,2014-02-02T12:00:00Z,28.9818,-94.9186,4.0,6.144208655,122.707556,7.26,'11111222,11111222,11111222' 
TABS,ioos:station:wmo:42043:1,2014-02-02T12:30:00Z,28.9818,-94.9186,4.0,5.466415645,121.9168472,6.8,'11111222,11111222,11111222' 
TABS,ioos:station:wmo:42043:1,2014-02-02T13:00:00Z,28.9818,-94.9186,4.0,4.59609617,124.4510796,5.58,'11111222,11111222,11111222' 
TABS,ioos:station:wmo:42043:1,2014-02-02T13:30:00Z,28.9818,-94.9186,4.0,3.884906691,121.8493978,5.45,'11111222,11111222,11111222' 
TABS,ioos:station:wmo:42043:1,2014-02-02T14:00:00Z,28.9818,-94.9186,4.0,3.905483325,122.8766058,5.14,'11111222,11111222,11111222' 
TABS,ioos:station:wmo:42043:1,2014-02-02T14:30:00Z,28.9818,-94.9186,4.0,4.524875689,129.5302853,5.25,'11111222,11111222,11111222' 
TABS,ioos:station:wmo:42043:1,2014-02-02T15:00:00Z,28.9818,-94.9186,4.0,4.386000456,126.8441057,5.36,'11111222,11111222,11111222' 
TABS,ioos:station:wmo:42043:1,2014-02-02T15:30:00Z,28.9818,-94.9186,4.0,4.034178975,126.3305273,5.8,'11111222,11111222,11111222' 
TABS,ioos:station:wmo:42043:1,2014-02-02T16:00:00Z,28.9818,-94.9186,4.0,4.348850423,123.6538691,5.32,'11111222,11111222,11111222' 
TABS,ioos:station:wmo:42043:1,2014-02-03T00:00:00Z,28.9818,-94.9186,4.0,10.12752685,354.4468315,12.76,'11111222,11111222,11111222' 
TABS,ioos:station:wmo:42043:1,2014-02-03T00:30:00Z,28.9818,-94.9186,4.0,10.79749045,355.9104017,13.99,'11111222,11111222,11111222' 
TABS,ioos:station:wmo:42043:1,2014-02-03T01:00:00Z,28.9818,-94.9186,4.0,9.973133911,1.43618978,13.3,'11111222,11111222,11111222' 
TABS,ioos:station:wmo:42043:1,2014-02-03T01:30:00Z,28.9818,-94.9186,4.0,9.386144043,8.2075677,11.7,'11111222,11111222,11111222' 
TABS,ioos:station:wmo:42043:1,2014-02-03T02:00:00Z,28.9818,-94.9186,4.0,9.460301264,7.470346819,11.87,'11111222,11111222,11111222' 
TABS,ioos:station:wmo:42043:1,2014-02-03T02:30:00Z,28.9818,-94.9186,4.0,10.0636872,7.823912536,12.72,'11111222,11111222,11111222' 
TABS,ioos:station:wmo:42043:1,2014-02-03T03:00:00Z,28.9818,-94.9186,4.0,9.27079824,6.565189399,11.78,'11111222,11111222,11111222' 
TABS,ioos:station:wmo:42043:1,2014-02-03T03:30:00Z,28.9818,-94.9186,4.0,9.400643595,359.3293392,11.97,'11111222,11144222,11111222' 
TABS,ioos:station:wmo:42043:1,2014-02-03T04:00:00Z,28.9818,-94.9186,4.0,9.604337562,7.59835733,12.3,'11111222,11111222,11111222' 
TABS,ioos:station:wmo:42043:1,2014-02-03T04:30:00Z,28.9818,-94.9186,4.0,9.845085068,6.063612714,12.45,'11111222,11111222,11111222' 
TABS,ioos:station:wmo:42043:1,2014-02-03T05:00:00Z,28.9818,-94.9186,4.0,9.3616772,19.40243507,12.76,'11111222,11111222,11111222' 
TABS,ioos:station:wmo:42043:1,2014-02-03T05:30:00Z,28.9818,-94.9186,4.0,9.827761698,19.74376605,13.27,'11111222,11111222,11111222' 
TABS,ioos:station:wmo:42043:1,2014-02-03T06:00:00Z,28.9818,-94.9186,4.0,9.150136611,16.57304407,12.77,'11111222,11111222,11111222' 
TABS,ioos:station:wmo:42043:1,2014-02-03T06:30:00Z,28.9818,-94.9186,4.0,9.052386426,8.192530181,11.78,'11111222,11111222,11111222' 
TABS,ioos:station:wmo:42043:1,2014-02-03T07:00:00Z,28.9818,-94.9186,4.0,9.14445187,16.45293764,13.09,'11111222,11111222,11111222' 
TABS,ioos:station:wmo:42043:1,2014-02-03T07:30:00Z,28.9818,-94.9186,4.0,9.066250603,18.45467978,12.63,'11111222,11111222,11111222' 
TABS,ioos:station:wmo:42043:1,2014-02-03T08:00:00Z,28.9818,-94.9186,4.0,9.243992644,16.78804601,12.07,'11111222,11111222,11111222' 
TABS,ioos:station:wmo:42043:1,2014-02-03T08:30:00Z,28.9818,-94.9186,4.0,9.139015264,11.35887637,13.59,'11111222,11111222,11111222' 
TABS,ioos:station:wmo:42043:1,2014-02-03T09:00:00Z,28.9818,-94.9186,4.0,9.07978524,9.316853823,12.17,'11111222,11111222,11111222' 
TABS,ioos:station:wmo:42043:1,2014-02-03T09:30:00Z,28.9818,-94.9186,4.0,9.204922596,9.063001564,11.99,'11111222,11111222,11111222' 
TABS,ioos:station:wmo:42043:1,2014-02-03T10:00:00Z,28.9818,-94.9186,4.0,9.300542995,18.88276495,11.97,'11111222,11111222,11111222' 
TABS,ioos:station:wmo:42043:1,2014-02-03T10:30:00Z,28.9818,-94.9186,4.0,10.64665206,30.85272191,12.73,'11111222,11111222,11111222' 
TABS,ioos:station:wmo:42043:1,2014-02-03T11:00:00Z,28.9818,-94.9186,4.0,9.391400322,20.4415383,12.32,'11111222,11111222,11111222' 
TABS,ioos:station:wmo:42043:1,2014-02-03T11:30:00Z,28.9818,-94.9186,4.0,8.787126948,23.4723017,11.17,'11111222,11111222,11111222' 
TABS,ioos:station:wmo:42043:1,2014-02-03T12:00:00Z,28.9818,-94.9186,4.0,7.593681584,20.34384322,10.12,'11111222,11111222,11111222' 
TABS,ioos:station:wmo:42043:1,2014-02-03T12:30:00Z,28.9818,-94.9186,4.0,7.771955996,32.97413114,10.3,'11111222,11111222,11111222' 
TABS,ioos:station:wmo:42043:1,2014-02-03T13:00:00Z,28.9818,-94.9186,4.0,8.381742062,34.10688018,10.69,'11111222,11111222,11111222' 
TABS,ioos:station:wmo:42043:1,2014-02-03T13:30:00Z,28.9818,-94.9186,4.0,7.73657547,23.21777443,10.72,'11111222,11111222,11111222' 
TABS,ioos:station:wmo:42043:1,2014-02-03T14:00:00Z,28.9818,-94.9186,4.0,7.829642393,33.486819,11.24,'11111222,11111222,11111222' 
TABS,ioos:station:wmo:42043:1,2014-02-03T14:30:00Z,28.9818,-94.9186,4.0,8.387347614,30.04963289,10.98,'11111222,11111222,11111222' 
TABS,ioos:station:wmo:42043:1,2014-02-03T15:00:00Z,28.9818,-94.9186,4.0,7.557863455,33.94208775,11.06,'11111222,11111222,11111222' 
TABS,ioos:station:wmo:42043:1,2014-02-03T15:30:00Z,28.9818,-94.9186,4.0,7.820920662,45.51771401,10.16,'11111222,11111222,11111222' 
TABS,ioos:station:wmo:42043:1,2014-02-03T16:00:00Z,28.9818,-94.9186,4.0,8.60030232,54.94214753,10.73,'11111222,11111222,11111222' 
TABS,ioos:station:wmo:42043:1,2014-02-03T16:30:00Z,28.9818,-94.9186,4.0,7.586567076,47.35005198,10.33,'11111222,11111222,11111222' 
TABS,ioos:station:wmo:42043:1,2014-02-03T17:00:00Z,28.9818,-94.9186,4.0,7.796948121,43.02475492,10.0,'11111222,11111222,11111222' 
TABS,ioos:station:wmo:42043:1,2014-02-03T17:30:00Z,28.9818,-94.9186,4.0,6.498438274,51.56017505,9.46,'11111222,11111222,11111222' 
TABS,ioos:station:wmo:42043:1,2014-02-03T18:00:00Z,28.9818,-94.9186,4.0,6.069703452,55.13137251,7.93,'11111222,11111222,11111222' 
TABS,ioos:station:wmo:42043:1,2014-02-03T18:30:00Z,28.9818,-94.9186,4.0,4.905109581,50.04454348,6.71,'11111222,11111222,11111222' 
TABS,ioos:station:wmo:42043:1,2014-02-03T19:00:00Z,28.9818,-94.9186,4.0,4.68158093,44.134257,6.87,'11111222,11111222,11111222' 
TABS,ioos:station:wmo:42043:1,2014-02-03T19:30:00Z,28.9818,-94.9186,4.0,5.077263042,40.68666949,6.93,'11111222,11111222,11111222' 
TABS,ioos:station:wmo:42043:1,2014-02-03T20:00:00Z,28.9818,-94.9186,4.0,6.237082651,44.35010165,8.2,'11111222,11111222,11111222' 
TABS,ioos:station:wmo:42043:1,2014-02-03T20:30:00Z,28.9818,-94.9186,4.0,6.383760647,42.58732529,8.64,'11111222,11111222,11111222' 
TABS,ioos:station:wmo:42043:1,2014-02-03T21:00:00Z,28.9818,-94.9186,4.0,9.285095584,47.35655897,11.68,'11111222,11111222,11111222' 
TABS,ioos:station:wmo:42043:1,2014-02-03T21:30:00Z,28.9818,-94.9186,4.0,7.822180003,62.84494725,10.54,'11111222,11111222,11111222' 
TABS,ioos:station:wmo:42043:1,2014-02-03T22:00:00Z,28.9818,-94.9186,4.0,7.721204569,73.6770797,10.01,'11111222,11111222,11111222' 
TABS,ioos:station:wmo:42043:1,2014-02-03T22:30:00Z,28.9818,-94.9186,4.0,7.938274372,76.22594976,10.28,'11111222,11111222,11111222' 
TABS,ioos:station:wmo:42043:1,2014-02-03T23:00:00Z,28.9818,-94.9186,4.0,7.261638933,80.88750838,9.95,'11111222,11111222,11111222' 
TABS,ioos:station:wmo:42043:1,2014-02-03T23:30:00Z,28.9818,-94.9186,4.0,7.504831777,85.33739031,9.77,'11111222,11111222,11111222' 
TABS,ioos:station:wmo:42043:1,2014-02-04T00:00:00Z,28.9818,-94.9186,4.0,7.10203492,88.62797359,9.43,'11111222,11111222,11111222' 
TABS,ioos:station:wmo:42043:1,2014-02-04T00:30:00Z,28.9818,-94.9186,4.0,7.470006693,89.92287813,10.42,'11111222,11111222,11111222' 
TABS,ioos:station:wmo:42043:1,2014-02-04T01:00:00Z,28.9818,-94.9186,4.0,8.089579717,83.04149356,10.54,'11111222,11111222,11111222' 
TABS,ioos:station:wmo:42043:1,2014-02-04T01:30:00Z,28.9818,-94.9186,4.0,7.671955422,94.3361097,9.83,'11111222,11111222,11111222' 
TABS,ioos:station:wmo:42043:1,2014-02-04T02:00:00Z,28.9818,-94.9186,4.0,7.491308297,88.92875713,9.53,'11111222,11111222,11111222' 
TABS,ioos:station:wmo:42043:1,2014-02-04T02:30:00Z,28.9818,-94.9186,4.0,7.170076708,93.03840104,9.77,'11111222,11111222,11111222' 
TABS,ioos:station:wmo:42043:1,2014-02-04T03:00:00Z,28.9818,-94.9186,4.0,6.901594019,82.33912166,9.53,'11111222,11111222,11111222' 
TABS,ioos:station:wmo:42043:1,2014-02-04T03:30:00Z,28.9818,-94.9186,4.0,6.270199359,89.54268569,8.57,'11111222,11111222,11111222' 
TABS,ioos:station:wmo:42043:1,2014-02-04T04:00:00Z,28.9818,-94.9186,4.0,5.907165141,94.36935975,8.65,'11111222,11111222,11111222' 
TABS,ioos:station:wmo:42043:1,2014-02-04T04:30:00Z,28.9818,-94.9186,4.0,6.470278201,90.53174088,8.05,'11111222,11111222,11111222' 
TABS,ioos:station:wmo:42043:1,2014-02-04T05:00:00Z,28.9818,-94.9186,4.0,7.108621526,92.82256962,8.68,'11111222,11111222,11111222' 
TABS,ioos:station:wmo:42043:1,2014-02-04T05:30:00Z,28.9818,-94.9186,4.0,6.681803649,100.9571736,8.85,'11111222,11111222,11111222' 
TABS,ioos:station:wmo:42043:1,2014-02-04T06:00:00Z,28.9818,-94.9186,4.0,8.122715063,88.51812538,10.43,'11111222,11111222,11111222' 
TABS,ioos:station:wmo:42043:1,2014-02-04T06:30:00Z,28.9818,-94.9186,4.0,6.976997922,97.3291376,8.69,'11111222,11111222,11111222' 
TABS,ioos:station:wmo:42043:1,2014-02-04T07:00:00Z,28.9818,-94.9186,4.0,7.270171937,90.39447004,8.75,'11111222,11111222,11111222' 
TABS,ioos:station:wmo:42043:1,2014-02-04T07:30:00Z,28.9818,-94.9186,4.0,8.333846651,94.33584087,9.98,'11111222,11111222,11111222' 
TABS,ioos:station:wmo:42043:1,2014-02-04T08:00:00Z,28.9818,-94.9186,4.0,8.802829091,82.62431115,10.54,'11111222,11111222,11111222' 
TABS,ioos:station:wmo:42043:1,2014-02-04T08:30:00Z,28.9818,-94.9186,4.0,8.880906485,87.15973282,10.68,'11111222,11111222,11111222' 
TABS,ioos:station:wmo:42043:1,2014-02-04T09:00:00Z,28.9818,-94.9186,4.0,8.160079656,85.07851127,10.35,'11111222,11111222,11111222' 
TABS,ioos:station:wmo:42043:1,2014-02-04T09:30:00Z,28.9818,-94.9186,4.0,8.167374119,80.69873973,9.97,'11111222,11111222,11111222' 
TABS,ioos:station:wmo:42043:1,2014-02-04T10:00:00Z,28.9818,-94.9186,4.0,8.095789029,78.38432125,9.86,'11111222,11111222,11111222' 
TABS,ioos:station:wmo:42043:1,2014-02-04T10:30:00Z,28.9818,-94.9186,4.0,8.724058688,72.93551855,10.9,'11111222,11111222,11111222' 
TABS,ioos:station:wmo:42043:1,2014-02-04T11:00:00Z,28.9818,-94.9186,4.0,8.574829444,65.61651071,10.22,'11111222,11111222,11111222' 
TABS,ioos:station:wmo:42043:1,2014-02-04T11:30:00Z,28.9818,-94.9186,4.0,7.905143895,55.56579392,10.25,'11111222,11111222,11111222' 
TABS,ioos:station:wmo:42043:1,2014-02-04T12:00:00Z,28.9818,-94.9186,4.0,8.531353937,56.0860714,11.66,'11111222,11111222,11111222' 
TABS,ioos:station:wmo:42043:1,2014-02-04T12:30:00Z,28.9818,-94.9186,4.0,8.33045617,47.48078135,10.84,'11111222,11111222,11111222' 
TABS,ioos:station:wmo:42043:1,2014-02-04T13:00:00Z,28.9818,-94.9186,4.0,8.953859503,62.74776204,11.12,'11111222,11111222,11111222' 
TABS,ioos:station:wmo:42043:1,2014-02-04T13:30:00Z,28.9818,-94.9186,4.0,9.058929297,59.55655291,10.85,'11111222,11111222,11111222' 
TABS,ioos:station:wmo:42043:1,2014-02-04T14:00:00Z,28.9818,-94.9186,4.0,8.916871649,65.13025289,11.71,'11111222,11111222,11111222' 
TABS,ioos:station:wmo:42043:1,2014-02-04T14:30:00Z,28.9818,-94.9186,4.0,6.833812991,57.91428615,8.96,'11111222,11111222,11111222' 
TABS,ioos:station:wmo:42043:1,2014-02-04T15:00:00Z,28.9818,-94.9186,4.0,5.15349396,56.95714541,6.27,'11111222,11111222,11111222' 
TABS,ioos:station:wmo:42043:1,2014-02-04T15:30:00Z,28.9818,-94.9186,4.0,1.608011194,143.3441878,3.59,'11111222,11111222,11111222' 
TABS,ioos:station:wmo:42043:1,2014-02-04T16:00:00Z,28.9818,-94.9186,4.0,2.190091322,127.3934657,3.22,'11111222,11111222,11111222' 
TABS,ioos:station:wmo:42043:1,2014-02-04T16:30:00Z,28.9818,-94.9186,4.0,3.245704854,70.00143752,4.29,'11111222,11111222,11111222' 
TABS,ioos:station:wmo:42043:1,2014-02-04T17:00:00Z,28.9818,-94.9186,4.0,2.604995202,308.4536193,4.39,'11111222,11111222,11111222' 
TABS,ioos:station:wmo:42043:1,2014-02-04T17:30:00Z,28.9818,-94.9186,4.0,8.715256737,324.1030032,11.19,'11111222,11111222,11111222' 
TABS,ioos:station:wmo:42043:1,2014-02-04T18:00:00Z,28.9818,-94.9186,4.0,8.439152801,333.0097214,10.61,'11111222,11111222,11111222' 
TABS,ioos:station:wmo:42043:1,2014-02-04T18:30:00Z,28.9818,-94.9186,4.0,6.340449511,348.8139382,8.94,'11111222,11111222,11111222' 
TABS,ioos:station:wmo:42043:1,2014-02-04T19:00:00Z,28.9818,-94.9186,4.0,8.260472141,332.8454237,9.88,'11111222,11111222,11111222' 
TABS,ioos:station:wmo:42043:1,2014-02-04T19:30:00Z,28.9818,-94.9186,4.0,8.956902366,324.5886094,11.22,'11111222,11111222,11111222' 
TABS,ioos:station:wmo:42043:1,2014-02-04T20:00:00Z,28.9818,-94.9186,4.0,7.036831673,334.8550627,8.56,'11111222,11111222,11111222' 
TABS,ioos:station:wmo:42043:1,2014-02-04T20:30:00Z,28.9818,-94.9186,4.0,6.250663965,338.6069492,7.63,'11111222,11111222,11111222' 
TABS,ioos:station:wmo:42043:1,2014-02-04T21:00:00Z,28.9818,-94.9186,4.0,7.261542536,337.319283,9.34,'11111222,11111222,11111222' 
TABS,ioos:station:wmo:42043:1,2014-02-04T21:30:00Z,28.9818,-94.9186,4.0,6.9067648,340.9877494,8.73,'11111222,11111222,11111222' 
TABS,ioos:station:wmo:42043:1,2014-02-04T22:00:00Z,28.9818,-94.9186,4.0,6.217113478,338.3866777,7.44,'11111222,11111222,11111222' 
TABS,ioos:station:wmo:42043:1,2014-02-04T22:30:00Z,28.9818,-94.9186,4.0,5.43948527,342.2310822,6.79,'11111222,11111222,11111222' 
TABS,ioos:station:wmo:42043:1,2014-02-04T23:00:00Z,28.9818,-94.9186,4.0,3.904971191,345.4653684,4.93,'11111222,11111222,11111222' 
TABS,ioos:station:wmo:42043:1,2014-02-04T23:30:00Z,28.9818,-94.9186,4.0,5.21513183,334.3192256,6.47,'11111222,11111222,11111222' 
TABS,ioos:station:wmo:42043:1,2014-02-05T00:00:00Z,28.9818,-94.9186,4.0,6.225624467,334.0933421,7.63,'11111222,11111222,11111222' 
TABS,ioos:station:wmo:42043:1,2014-02-05T00:30:00Z,28.9818,-94.9186,4.0,6.826162905,338.2451903,8.45,'11111222,11111222,11111222' 
TABS,ioos:station:wmo:42043:1,2014-02-05T01:00:00Z,28.9818,-94.9186,4.0,6.095900262,347.8788024,8.01,'11111222,11111222,11111222' 
TABS,ioos:station:wmo:42043:1,2014-02-05T01:30:00Z,28.9818,-94.9186,4.0,5.183676302,351.0099452,7.22,'11111222,11111222,11111222' 
TABS,ioos:station:wmo:42043:1,2014-02-05T02:00:00Z,28.9818,-94.9186,4.0,5.484605729,355.8174244,7.86,'11111222,11111222,11111222' 